Location: Evergreen Manor
(41.4083°N, 81.4939°W)
Time: 12:17:29
(UTC+00:00)

Meteor 1-14 Rocket - Pass Details

Date: 11 December 2019
Orbit: 833 x 920 km, 81.3° (Epoch: 21 January)

Event Time Altitude Azimuth Distance (km) Brightness Sun altitude
Rises 10:46:16 0° 188° (S) 3,511 7.5 -20.9°
Reaches altitude 10° 10:48:42 10° 189° (S) 2,584 6.8 -20.5°
Maximum altitude 10:54:38 88° 278° (W) 923 4.3 -19.4°
Drops below altitude 10° 11:00:40 10° 9° (N) 2,624 6.7 -18.3°
Sets 11:03:09 0° 10° (N) 3,570 7.4 -17.8°
